Regional Weather Roundup
Issued by NWS Wakefield, VA

Home | Current Version | Previous Version | Text Only | Print | Product List | Glossary Off
Versions: 1 2 3 4 5 6 7 8 9 10 11 12 13 14 15 16 17 18 19 20 21 22 23 24 25 26 27 28 29 30 31 32 33 34 35 36 37 38 39 40 41 42 43 44 45 46 47

000
ASUS41 KAKQ 251810
RWRAKQ

REGIONAL WEATHER ROUNDUP
NATIONAL WEATHER SERVICE WAKEFIELD VA
100 PM EST SUN JAN 25 2015

Note: "fair" indicates few or no clouds below 12,000 feet with no
significant weather and/or obstructions to visibility. * = Denotes
station may not report precipitation (e.g., rain,snow,etc.),
thunder or fog.

VAZ042-051-052>054-056-251900-
NORTHERN VIRGINIA

CITY           SKY/WX    TMP DP  RH WIND       PRES   REMARKS
WASH NATIONAL  CLOUDY    48  30  49 S8        29.84F
DULLES         CLOUDY    45  31  58 S8        29.83F
FORT BELVOIR   CLOUDY    47  30  51 VRB6      29.84F
QUANTICO       CLOUDY    42  34  73 S9        29.86F
FREDERICKSBRG* CLOUDY    50  33  51 S7        29.84F
STAFFORD*      CLOUDY    47  29  51 CALM      29.88F
WARRENTON      CLOUDY    46  36  70 SW7       29.84S
CULPEPER*      CLOUDY    45  32  61 S3        29.84F
MANASSAS*      PTSUNNY   46  34  61 MISG      29.83F
LEESBURG*      CLOUDY    45  34  65 W5        29.83F
WINCHESTER     CLOUDY    43  28  56 SW7       29.81S
FRONT ROYAL*   CLOUDY    41  32  70 SW5       29.81S
LURAY*         CLOUDY    43  34  70 SW6       29.81F
$$

VAZ048-049-060>072-079>083-251900-
CENTRAL AND SOUTH CENTRAL VIRGINIA

CITY           SKY/WX    TMP DP  RH WIND       PRES   REMARKS
RICHMOND       MOSUNNY   51  32  48 S7        29.87F
CHESTERFIELD*  FAIR      52  27  37 SE7       29.88F
PETERSBURG*    SUNNY     53  31  44 S7        29.89S
HANOVER        MOSUNNY   50  31  48 S6        29.87F
TAPPAHANNOCK*  MOSUNNY   50  25  38 CALM      29.86F
QUINTON*       FAIR      50  30  46 W3        29.87F
CHARLOTTSVILLE CLOUDY    43  32  65 S10       29.83F
GORDONSVILLE*  FAIR      43  32  63 SW7       29.84S
ORANGE*        CLOUDY    45  34  65 S6        29.86S
LOUISA*        PTSUNNY   48  34  57 SW6       29.83F
BUMPASS*       FAIR      48  32  53 S5        29.84F
FARMVILLE*     PTSUNNY   54  35  48 S9        29.85F
CREWE*         FAIR      50  31  49 CALM      29.87F
FORT PICKETT*  FAIR      49  33  52 SW6       29.87F
CHASE CITY*    FAIR      54  36  50 S6        29.87F
CLARKSVILLE*   FAIR      52  34  50 S7        29.87F
SOUTH HILL*    SUNNY     49  32  52 SW8       29.94F
LAWRENCEVILLE* FAIR      50  35  55 SW7       29.88F
EMPORIA*       SUNNY     50  32  50 CALM      29.91F
$$

VAZ088>098-251900-
SOUTHEAST VIRGINIA

CITY           SKY/WX    TMP DP  RH WIND       PRES   REMARKS
NORFOLK        SUNNY     50  27  40 VRB6      29.88F
VIRGINIA BEACH MOSUNNY   51  31  46 S7        29.88F
NORFOLK NAVAL  MOSUNNY   53  29  39 SW6       29.90F
WEST POINT*    SUNNY     53  29  40 SW6       29.89F
SALUDA*        FAIR      49  31  50 CALM      29.87F
NEWPORT NEWS   SUNNY     52  32  46 SW5       29.89F
LANGLEY AFB    SUNNY     49  30  47 SW5       29.88F
FORT EUSTIS    SUNNY     50  36  57 VRB5      29.87F
WILLIAMSBURG*    N/A     54  36  50 S3        29.89F
HR EXEC AP*    FAIR      50  30  46 S7        29.92F
FRANKLIN*      SUNNY     49  31  49 SW5       29.91S
WAKEFIELD      SUNNY     51  31  46 VRB6      29.89F
$$

VAZ020-022-025-037-045-251900-
WEST CENTRAL AND SOUTHWEST VIRGINIA

CITY           SKY/WX    TMP DP  RH WIND       PRES   REMARKS
STAUNTON*      CLOUDY    42  31  64 SW6       29.83F
WAYNESBORO*    CLOUDY    40  31  68 W3        29.81F
HOT SPRINGS VA CLOUDY    32  32 100 CALM      29.72F
LYNCHBURG      PTSUNNY   47  31  53 SW6       29.85F
DANVILLE       SUNNY     54  31  41 VRB5      29.86F
SOUTH BOSTON*  FAIR      53  31  42 S6        29.87F
MARTINSVILLE   SUNNY     56  30  36 S6        29.85F
ROANOKE        PTSUNNY   46  30  53 S3        29.85F
BLACKSBURG     PTSUNNY   43  30  60 W7        29.84F
DUBLIN*        PTSUNNY   46  33  60 SW6       29.82F
MARION*        PTSUNNY   46  31  56 W3        29.81F
HILLSVILLE*    MOSUNNY   48  30  49 S8G16     29.79F
RICHLANDS*     FAIR      43  25  49 SW9G17    29.76F
WISE*          CLOUDY    43  30  61 S12       29.76F
ABINGDON*      PTSUNNY   48  30  49 W5        29.78F
$$

MDZ021>025-VAZ099-100-251900-
SOUTHERN MARYLAND AND THE DELMARVA PENINSULA

CITY           SKY/WX    TMP DP  RH WIND       PRES   REMARKS
PATUXENT RIVER PTSUNNY   48  29  47 SW8       29.84F
BAY BRIDGE APT   N/A     46  30  53 CALM      29.84S
LEONARDTOWN    MOSUNNY   46  30  53 W7        29.85F
DOVER          MOSUNNY   49  32  51 SW9       29.79R
GEORGETOWN     CLOUDY    48  30  49 W10       29.86S
EASTON         PTSUNNY   48  32  53 SW13      29.89S
CAMBRIDGE      PTSUNNY   48  32  53 SW5       29.85F
SALISBURY      CLOUDY    51  32  48 W7        29.86F
OCEAN CITY     SUNNY     48  30  49 W14       29.86F
WALLOPS ISLAND SUNNY     48  29  47 W12       29.88F
ACCOMACK*      SUNNY     46  28  49 SW12      29.88F
$$

NCZ012>017-030>032-251900-
NORTH CENTRAL AND EASTERN NORTH CAROLINA

CITY           SKY/WX    TMP DP  RH WIND       PRES   REMARKS
ROANOKE RAPIDS FAIR      50  32  50 SW5       29.90F
RALEIGH        MOSUNNY   52  32  46 SW8       29.91F
ELIZABETH CITY SUNNY     49  30  48 SW6       29.91F
AHOSKIE*       SUNNY     49  31  50 CALM      29.91F
EDENTON*       SUNNY     49  28  45 S3        29.92F
CURRITUCK*     SUNNY     49  28  43 CALM      29.92F
KILL DEVIL HLS SUNNY     48  29  48 CALM      29.91F
MANTEO         SUNNY     48  28  46 CALM      29.93F
CAPE HATTERAS  SUNNY     48  33  56 VRB5      29.94F
TARBORO*       FAIR      52  32  46 SW5       29.93F
GOLDSBORO      SUNNY     52  38  58 NW5       29.91F
WASHINGTON     SUNNY     50  31  48 CALM      29.93F
GREENVILLE     SUNNY     52  32  46 CALM      29.94
NEW BERN       SUNNY     53  30  41 VRB3      29.95S
WILMINGTON     SUNNY     53  35  50 CALM      29.95F
$$

VAZ048-251900-
ELSEWHERE

CITY           SKY/WX    TMP DP  RH WIND       PRES   REMARKS
HARRISBURG PA  LGT RAIN  38  32  79 NW7       29.81F
BALTIMORE      CLOUDY    49  31  49 W6        29.82F
ANNAPOLIS      CLOUDY    48  29  47 W8        29.83S
ANDREWS AFB    CLOUDY    48  31  52 S6        29.82F
PHILADELPHIA   PTSUNNY   46  29  51 NW13G21   29.81F
HENDERSON NC   SUNNY     52  30  43 SW6       29.89F
GREENSBORO     MOSUNNY   52  31  44 S12       29.85F
ROCKY MOUNT    SUNNY     52  32  46 VRB5      29.91F
$$

VAZ100-251900-
MARINE

STATION/POSITION TIME  TEMP    WIND        PRES    WAVE   SWELL
                       AIR SEA DIR/SP/G            HT/PER HT/PER
                 (UTC) (F)     (DEG/KT/KT) (MB)    (FT/S) (FT/S)
BRANDYWINE LGT   1800   45 37  290/ 10/ 12 1010.4S
CAPE MAY NJ      1800   42 39  250/  6/  7 1010.0S
LEWES DE         1800   47 38  280/  9/ 11 1010.3S
15NM E FENWICK I 1800   42 43              1010.5F   3/11
OCEAN-CITY-INLET 1800   46 39  280/ 12/ 15 1010.7F
WACHAPREAGUE VA  1800   49 40  230/  8/ 13 1011.8F
THOMAS POINT MD  1800   40 37  170/  8/  9 1011.4F
GOOSES REEF MD   1800   44 37  VRB  8/ 12  1009.7F   1
COVE POINT MD    1800   46     270/  9/ 12 1010.9F
SOLOMONS ISLAND  1800      38                N/A
BISHOPS HEAD MD  1800   42 39  230/ 11/ 12 1010.6F
PINEY POINT MD   1800          240/  2/  4   N/A
POTOMAC MD       1800   44 39  220/  4/  4 1010.5F   0
CAMBRIDGE MD     1800   47 36  240/  4/  9 1010.6F
LEWISETTA VA     1800   47 39  220/  5/  5 1010.9F
RAPPAHANNOCK LGT 1800          190/ 10/ 10 1012.6S
STINGRAY PT      1800   46 40  160/  4/  6 1012.4F   0
YORK RVR RNG VA  1800   44     140/  5/  6 1011.7S
YORKTOWN VA      1800   49 41  230/  4/  7 1011.6F
JAMESTOWN VA     1800   47 41   20/  2/  4   N/A     0
DOMINION TERM VA 1800   45     170/  3/  4 1012.4F
KIPTOPEKE VA     1800      45  220/  7/  8   N/A
CHES BAY BRIDGE  1800   45 42     CALM     1011.9F
CAPE HENRY VA    1800   45     350/  3/  4 1011.1F
CHESAPEAKE LGHT  1700   44     240/  8/  9 1014.1F
WILLOUBY STN VA  1800   47     210/  4/  4 1012.7F
S CRANEY ISL VA  1800          200/  5/  8 1012.0F
CAPE HENRY BUOY  1800      45                N/A     2/12   2/12
1ST LANDING BUOY 1800   45 42   30/  2/  2 1011.9F   1/ 5
CAPE CHARLES BUO 1800      44                N/A     2/11   2/11
OFFSHORE WE BUOY 1800      47                N/A     3/11   3/11
64NM E OF VA BCH 1800   46 53  270/  8/ 10 1013.1F   5/11   5/11
DUCK PIER NC     1800   47 43  160/  4/  4 1012.4F
44100 DUCK FRF   1800      45                N/A     3/11   2/11
44056 DUCK FRF   1800      44                N/A     2/10   2/11
OREGON INLET NC  1800   46 47   50/  4/  6 1013.7R
HATTERAS NC      1800   46 53  340/  5/  7 1014.1F


USA.gov is the U.S. government's official web portal to all federal, state and local government web resources and services.